Dewpoint
55 55 55 55 56 56 56 56 56 56 56 56 57 57 58 58 58 54 38 28 28 44 44 36 25 24 23 31 38 37 41 32 26 28 29 30 35 36 42 45 47 48 54 58 59
54 54 55 54 55 55 55 55 56 56 56 56 56 57 58 58 53 45 43 36 29 34 29 25 15 19 31 38 38 44 42 37 26 27 28 28 29 35 49 50 50 52 57 58 59
54 54 54 54 54 55 55 55 55 55 56 56 56 57 58 57 49 35 43 39 38 35 38 26 16 29 36 35 36 43 39 36 23 26 27 28 31 31 45 51 56 53 56 57 59
53 53 53 53 53 54 54 54 55 55 55 56 57 58 58 53 36 36 40 43 47 44 41 24 23 33 36 32 32 33 27 25 23 24 26 26 28 31 33 46 48 56 57 57 58
52 53 53 53 53 53 54 54 54 55 55 56 57 58 48 42 38 37 43 46 42 37 27 22 23 32 33 31 29 29 25 25 25 25 27 28 28 29 32 44 48 56 57 56 57
52 52 52 53 53 53 54 53 54 54 55 56 58 57 47 24 41 37 34 34 37 21 24 24 21 28 31 29 27 28 27 27 27 26 28 29 33 30 36 41 46 53 56 56 56
51 52 52 52 52 53 53 53 53 54 56 57 57 50 34 20 35 39 35 30 22 23 23 25 26 25 25 25 27 26 23 26 27 25 23 32 37 36 43 42 48 52 55 56 56
51 51 51 52 52 52 52 52 52 55 57 58 58 48 30 25 29 37 32 27 23 20 28 27 26 22 21 24 23 20 22 21 22 25 25 29 40 45 38 43 48 51 53 55 56
50 51 51 52 52 52 52 51 50 56 58 58 54 46 25 26 18 31 30 24 21 17 26 28 24 21 16 13 12 15 16 16 23 24 23 21 31 35 33 43 49 51 53 55 56
50 51 51 51 52 52 50 48 48 51 55 52 44 33 28 20 16 24 29 26 20 17 22 22 21 18 13 10 3 9 7 6 14 19 23 18 20 32 36 38 50 52 54 56 58
50 50 51 51 51 51 46 32 39 44 37 27 23 14 18 22 22 26 29 20 17 15 16 18 15 10 8 7 12 13 14 12 11 15 22 18 21 21 35 36 44 53 56 57 59
49 50 50 50 50 50 47 32 26 24 21 22 24 21 18 24 21 18 25 18 16 11 13 18 11 12 13 15 12 9 6 6 10 14 22 20 18 20 25 32 36 46 56 57 58
49 50 50 50 50 45 28 26 27 22 18 12 10 12 16 18 17 17 23 19 17 13 10 14 13 17 16 11 6 6 6 7 12 19 22 19 17 19 21 31 32 34 54 57 56
49 49 49 49 39 31 18 31 22 25 16 7 9 12 9 13 12 17 22 18 20 17 13 14 14 16 16 10 9 8 15 10 10 13 11 17 14 20 23 30 31 35 39 53 55
48 49 49 49 38 26 29 24 23 26 9 2 11 11 8 10 8 13 22 18 19 19 19 15 15 15 16 10 10 10 22 20 14 15 16 13 11 24 23 22 30 37 40 44 55
48 48 48 40 44 30 21 21 24 18 3 9 12 12 7 8 8 12 21 20 21 22 20 19 22 17 15 14 14 14 19 17 16 15 13 13 12 16 28 30 25 35 38 43 54
47 48 47 42 27 25 20 21 17 11 5 8 10 11 7 7 6 12 19 19 20 20 21 20 19 20 17 15 16 16 16 15 15 16 21 30 21 18 17 23 27 32 39 43 53
46 47 43 37 28 27 23 19 15 10 7 5 9 8 5 5 5 8 16 19 20 20 16 17 14 15 16 16 16 18 17 15 13 13 23 28 24 25 21 24 32 36 36 43 51
46 40 37 37 35 27 22 15 15 14 8 8 8 8 7 5 6 6 17 17 19 20 18 15 18 17 17 19 16 17 19 19 15 14 11 14 24 28 33 26 32 39 40 46 50
43 32 26 28 30 26 19 16 12 13 11 9 8 8 7 5 5 7 14 17 18 19 20 20 18 17 16 17 16 16 15 16 18 13 11 10 29 32 36 38 38 39 41 49 51
42 28 32 30 28 21 11 13 15 16 14 10 9 10 10 11 7 7 11 15 17 18 20 19 20 17 19 19 17 16 17 14 14 17 15 16 26 40 35 31 43 43 46 50 50
38 25 32 23 17 12 10 9 12 13 14 12 11 14 12 16 14 8 9 13 15 16 18 20 18 18 18 18 17 15 19 19 15 17 18 17 26 35 38 33 30 41 48 50 52
39 28 30 22 9 8 9 8 8 12 14 11 7 9 13 16 19 17 14 15 14 14 24 20 17 16 19 19 16 14 15 15 20 27 24 26 30 36 43 42 36 46 50 53 54
39 23 22 22 16 16 17 8 7 13 14 12 7 7 10 16 19 26 16 15 15 15 27 25 22 19 15 20 23 22 18 15 13 17 18 18 32 41 47 46 51 49 53 54 58
38 29 30 17 10 13 19 16 12 14 11 13 9 8 11 12 15 19 19 16 14 22 22 22 25 23 20 18 20 22 25 25 14 16 18 18 29 42 46 48 48 54 54 54 58
27 31 34 27 28 27 17 19 17 16 14 15 17 15 13 12 13 14 16 23 15 15 22 23 25 24 24 22 19 15 14 14 12 15 17 17 22 47 48 43 46 55 53 54 57
33 33 31 28 20 25 23 18 19 20 18 21 21 19 14 22 28 32 32 34 36 35 29 26 27 29 25 23 20 18 16 14 14 13 15 19 42 48 50 54 52 56 54 55 55
Wind_Speed
17 18 19 19 19 18 18 18 17 18 17 17 16 17 14 15 22 5 4 4 2 3 7 14 13 16 18 17 17 18 12 6 11 17 14 9 13 10 14 10 12 12 22 25 22
19 19 19 19 18 19 19 19 19 19 19 18 17 16 15 13 8 10 2 2 3 5 9 8 10 11 15 14 11 27 9 9 14 11 7 11 5 6 18 23 9 20 22 23 22
19 19 20 20 21 21 20 21 20 20 21 19 18 16 14 12 7 5 3 2 5 4 11 13 13 13 18 9 10 18 10 12 13 8 7 13 9 1 26 18 33 18 21 22 20
21 21 21 21 21 21 22 22 22 22 21 20 19 16 13 5 2 4 2 2 5 8 15 10 10 14 10 6 3 6 4 8 9 4 4 10 11 10 7 17 18 21 21 22 19
22 22 22 23 23 23 22 23 22 22 21 20 18 15 8 8 4 9 6 6 9 13 11 6 9 12 13 2 2 10 4 1 2 1 3 5 9 4 7 18 17 20 20 19 18
23 23 24 24 24 24 24 24 23 22 20 18 16 12 6 11 9 11 10 7 12 8 5 8 8 11 9 4 8 10 4 10 7 6 6 1 17 7 10 12 14 18 20 19 18
24 24 24 25 26 25 25 25 24 22 19 14 12 7 10 7 1 10 9 9 2 11 5 4 10 8 8 7 10 6 10 14 15 5 6 10 17 17 10 13 12 15 18 18 16
24 25 25 26 27 27 27 27 25 20 16 11 9 6 8 3 3 7 11 6 5 7 10 3 7 13 13 13 7 12 14 17 16 5 3 6 23 47 11 15 11 14 15 18 16
24 25 26 27 27 27 29 29 23 13 13 12 7 6 11 4 9 12 11 9 6 7 5 6 9 13 15 12 14 16 15 15 10 8 8 5 10 10 5 14 13 9 11 17 15
24 25 26 28 28 28 34 26 8 13 9 10 13 9 11 9 9 14 11 6 6 7 8 8 8 13 13 15 17 11 13 9 1 3 8 8 9 12 9 8 17 13 11 12 14
26 26 27 28 29 25 19 9 5 3 8 13 8 12 9 5 6 9 10 9 10 7 11 11 12 15 16 15 8 11 13 13 6 2 2 12 7 7 12 7 14 17 14 13 14
27 28 29 29 30 28 9 7 8 7 11 16 19 15 1 8 10 12 13 11 12 13 13 11 13 17 3 7 8 11 10 11 11 4 4 12 13 9 6 9 6 16 20 16 15
27 28 30 32 34 13 11 12 8 9 8 17 21 22 15 12 13 15 18 18 12 13 16 16 5 6 2 6 8 13 12 13 8 4 9 15 17 21 16 13 9 5 22 19 18
27 28 29 35 11 12 10 4 7 6 7 15 17 15 20 13 13 17 20 17 10 14 15 12 15 4 7 10 13 14 13 6 11 10 16 6 16 8 15 13 15 11 8 20 15
27 27 28 11 15 6 7 7 8 7 6 13 19 12 14 20 7 20 19 21 18 14 10 14 13 8 9 12 12 12 6 7 10 14 16 18 11 13 10 1 18 16 12 8 19
28 26 27 2 9 15 12 9 8 8 13 9 11 13 19 20 21 18 19 21 13 15 12 19 1 7 12 11 6 10 6 11 13 17 19 20 14 8 11 17 1 13 7 11 18
31 26 14 12 5 13 10 9 7 12 19 14 18 16 23 20 25 16 22 22 19 14 16 16 17 11 9 11 12 10 11 12 13 19 4 22 16 10 9 14 9 8 13 9 19
35 29 8 11 12 10 10 10 12 14 25 10 14 20 23 23 23 20 19 22 24 20 18 15 18 22 13 14 10 12 15 15 19 21 4 15 9 37 9 11 15 7 4 14 18
38 4 5 8 14 10 10 16 14 22 10 10 9 10 20 24 15 24 23 24 23 24 20 12 12 17 20 13 12 13 16 17 16 22 22 15 9 15 21 6 15 14 11 15 17
10 12 13 10 8 7 12 23 22 11 9 5 11 13 17 21 23 25 21 23 23 24 22 12 7 10 12 6 12 13 17 10 14 18 20 18 9 5 9 21 16 12 12 15 16
4 7 8 8 8 9 19 22 22 11 2 3 13 16 16 8 20 18 17 20 22 22 21 18 6 6 12 10 14 13 14 15 18 20 19 19 2 19 24 11 15 14 14 15 15
10 7 11 9 12 14 20 21 22 18 5 10 8 16 10 11 10 18 18 18 10 19 19 16 9 15 13 13 18 16 12 11 16 14 18 19 6 11 17 24 8 20 16 14 15
7 6 12 13 10 18 19 24 25 18 6 8 10 10 14 3 5 10 4 14 8 7 5 6 12 16 16 16 15 12 14 17 15 13 19 13 8 9 27 23 11 19 15 15 16
7 6 9 12 18 18 16 23 24 4 13 13 13 12 8 10 7 10 7 6 4 3 9 7 12 11 19 5 10 10 14 15 18 15 19 19 12 20 3 36 41 15 14 15 14
7 6 7 5 16 18 15 12 16 12 12 11 9 13 11 11 16 15 8 7 8 2 6 7 11 13 18 22 16 14 9 30 18 18 19 20 9 6 25 23 48 20 15 16 14
8 10 19 17 8 12 15 14 9 19 13 16 13 14 13 13 15 10 12 17 5 11 12 16 13 14 21 24 23 24 17 16 17 17 16 18 16 32 15 12 32 16 14 15 13
12 14 9 13 8 11 12 12 16 14 17 8 6 15 15 6 8 11 12 8 8 7 5 13 11 12 20 20 23 22 15 18 16 17 19 17 22 38 28 14 25 15 11 14 15
Wind_Direction
7 2 360 358 348 346 347 344 341 336 330 328 326 316 313 312 305 235 256 47 26 344 314 279 270 269 269 269 267 262 333 340 64 67 108 68 125 93 83 116 83 60 116 128 141
3 359 357 352 344 343 343 340 341 333 328 325 320 316 314 319 273 248 63 354 323 312 271 264 271 260 260 268 67 60 336 308 51 37 39 110 43 130 137 45 97 103 110 131 145
358 356 353 349 344 343 341 338 337 330 327 321 318 318 312 314 273 88 62 340 295 258 272 292 293 282 269 272 128 133 230 222 87 3 10 357 142 15 115 123 227 136 138 145 151
355 352 349 346 342 340 339 335 332 328 321 318 317 319 308 254 6 99 136 218 249 260 276 256 260 261 273 233 41 225 59 357 63 58 352 21 344 65 61 132 128 142 148 150 159
352 348 345 344 341 337 336 330 328 321 316 316 314 317 295 247 53 142 169 198 241 248 262 251 256 259 274 273 27 289 83 305 229 262 346 342 276 55 65 95 118 140 153 160 163
350 346 345 341 338 334 331 327 322 318 315 313 319 313 269 277 104 149 167 193 257 251 239 262 276 344 312 325 282 357 343 305 289 289 261 269 333 141 108 111 132 149 160 169 166
348 344 342 339 335 331 326 322 319 316 309 316 315 301 277 274 94 162 201 234 300 276 263 313 321 280 305 258 235 280 271 254 233 231 297 54 355 329 125 133 147 160 168 173 168
346 342 340 336 331 329 322 318 316 314 305 302 298 282 276 106 269 181 216 225 236 250 288 349 273 279 290 291 286 251 256 260 239 121 153 176 160 255 165 147 159 169 177 167 168
344 340 336 333 329 326 320 312 301 292 277 282 279 237 278 143 207 204 215 231 201 238 256 300 267 258 254 238 255 228 255 243 137 120 330 285 161 141 188 139 146 163 182 168 174
343 338 334 331 327 327 321 296 263 306 240 248 265 278 226 238 180 192 202 259 224 226 243 241 244 248 224 241 249 310 223 258 167 123 176 272 255 144 147 185 155 166 177 182 183
341 337 332 328 323 325 336 310 241 180 226 247 310 242 146 87 118 214 191 217 228 237 237 202 229 232 242 227 344 337 321 331 10 160 44 287 311 281 149 173 172 154 167 193 196
339 334 331 327 320 316 293 268 59 333 297 266 243 258 236 177 198 210 188 211 208 226 221 230 231 254 291 18 342 297 284 281 270 137 227 278 277 269 205 157 196 169 166 187 188
336 332 330 326 317 296 243 301 337 323 265 265 231 224 214 223 241 196 191 215 205 224 230 242 151 37 10 299 269 265 269 271 302 306 235 244 258 244 232 156 188 212 166 173 192
335 331 329 328 308 334 263 64 289 322 272 250 194 219 213 210 229 241 189 215 237 233 236 230 259 184 251 243 252 265 308 233 296 286 275 328 269 226 194 189 175 175 178 170 181
332 329 323 329 308 286 10 309 324 263 264 209 174 184 190 195 211 206 181 218 234 219 252 228 237 250 236 247 244 259 5 301 273 271 273 269 254 86 174 250 180 170 153 171 157
326 326 326 240 221 259 307 296 268 231 233 151 144 192 191 202 236 173 190 221 233 261 217 261 168 259 246 237 248 272 295 267 260 257 259 260 249 169 128 152 117 115 112 154 145
322 317 308 307 232 340 311 256 221 229 238 173 175 201 205 193 218 183 192 202 218 214 235 229 242 213 246 236 211 236 252 258 242 238 310 1 328 309 104 125 115 101 132 146 145
319 312 256 237 298 286 275 225 235 218 245 235 189 195 203 203 208 196 206 210 219 221 244 216 220 216 194 238 222 219 247 269 296 295 104 199 211 261 121 125 122 137 121 141 152
317 226 221 242 224 252 244 218 215 245 255 203 215 227 206 212 197 210 213 215 212 226 240 267 229 168 193 197 235 252 236 246 279 282 281 251 203 41 13 344 132 133 140 148 157
317 284 240 155 185 209 227 232 234 259 340 347 243 213 229 222 192 203 202 222 224 212 234 260 262 171 169 235 249 245 275 257 234 262 273 278 94 93 128 301 124 134 149 145 158
257 238 125 171 181 212 224 226 241 278 316 292 265 294 258 246 215 219 211 219 216 222 206 241 248 253 140 206 247 209 238 256 275 286 300 292 228 154 152 193 167 158 154 155 163
283 257 150 172 195 223 232 237 256 272 144 258 272 282 269 270 254 210 230 236 207 223 193 217 241 243 239 227 215 244 286 208 243 260 253 275 55 169 207 229 275 141 148 159 155
283 253 161 189 216 230 232 246 243 248 229 236 254 255 312 330 316 298 247 29 99 206 37 246 224 253 251 272 244 222 253 267 269 278 278 293 259 8 333 351 266 125 149 153 153
280 229 157 206 250 277 273 222 237 189 259 241 253 262 228 269 214 293 279 111 57 333 4 310 268 227 258 336 327 310 226 251 261 258 267 259 125 178 18 23 337 142 153 149 136
248 311 356 183 219 243 260 269 227 235 219 278 242 253 228 237 249 231 277 242 141 243 287 261 262 278 271 279 268 208 218 285 232 242 252 272 258 169 103 97 270 135 152 145 154
324 345 340 291 318 300 220 249 266 239 208 224 230 254 231 246 258 256 232 292 180 207 218 238 243 258 276 280 273 262 257 263 279 289 256 265 288 86 64 285 293 136 151 148 171
10 333 290 297 238 254 252 218 246 255 286 222 231 237 252 285 350 359 14 351 28 351 274 245 232 247 262 262 264 266 254 257 262 252 270 278 131 113 123 205 258 143 152 166 176